GW6647 Weather Reports


time (UTC)temp
C
wind
direction
speed
KPH
gust
KPH
rain 1hr
cm
rain 24hr
cm
rain mn
cm
humidity
%
barometer
mb
20260505095320 17 142 1.6 3.2 0.00 0.00 0.00 65 1024.4
20260505094816 17 116 9.7 12.9 0.00 0.00 0.00 64 1024.5
20260505094313 17 137 6.4 6.4 0.00 0.00 0.00 64 1024.4
20260505093808 17 136 3.2 9.7 0.00 0.00 0.00 63 1024.5
20260505093306 17 143 8.0 12.9 0.00 0.00 0.00 63 1024.6
20260505092803 17 123 6.4 11.3 0.00 0.00 0.00 62 1024.7
20260505092304 17 128 3.2 14.5 0.00 0.00 0.00 62 1024.4
20260505091758 17 150 8.0 14.5 0.00 0.00 0.00 61 1024.6
20260505091256 18 156 4.8 6.4 0.00 0.00 0.00 60 1024.5
20260505090754 18 161 6.4 9.7 0.00 0.00 0.00 59 1024.4
20260505090252 18 139 6.4 11.3 0.00 0.00 0.00 59 1024.2
20260505085749 18 155 8.0 12.9 0.00 0.00 0.00 58 1024.3
20260505085247 18 162 6.4 11.3 0.00 0.00 0.00 57 1024.4
20260505084744 18 155 6.4 11.3 0.00 0.00 0.00 55 1024.2
20260505084243 18 190 3.2 11.3 0.00 0.00 0.00 56 1024.2
20260505083739 18 117 6.4 11.3 0.00 0.00 0.00 56 1024.3
20260505083236 19 134 8.0 9.7 0.00 0.00 0.00 54 1024.3
20260505082732 18 144 1.6 9.7 0.00 0.00 0.00 55 1024.1
20260505082230 18 116 8.0 14.5 0.00 0.00 0.00 54 1023.9
20260505081725 18 162 6.4 12.9 0.00 0.00 0.00 53 1024.0
20260505081223 18 142 11.3 16.1 0.00 0.00 0.00 53 1023.9
20260505080720 19 174 6.4 16.1 0.00 0.00 0.00 51 1024.0
20260505080215 19 106 4.8 11.3 0.00 0.00 0.00 50 1023.9
20260505075711 19 133 8.0 11.3 0.00 0.00 0.00 51 1023.9
20260505075209 19 142 9.7 16.1 0.00 0.00 0.00 49 1023.8
20260505074706 19 159 4.8 16.1 0.00 0.00 0.00 48 1023.7
20260505074203 20 116 11.3 14.5 0.00 0.00 0.00 48 1023.9
20260505073700 20 151 4.8 11.3 0.00 0.00 0.00 46 1023.7
20260505073158 20 93 3.2 6.4 0.00 0.00 0.00 47 1023.9
20260505072654 20 170 4.8 11.3 0.00 0.00 0.00 48 1023.6
20260505072151 20 170 8.0 16.1 0.00 0.00 0.00 48 1023.8
20260505071646 20 131 4.8 9.7 0.00 0.00 0.00 48 1023.6
20260505071144 20 176 4.8 9.7 0.00 0.00 0.00 49 1023.6
20260505070641 20 167 4.8 12.9 0.00 0.00 0.00 48 1023.6
20260505070137 20 112 3.2 11.3 0.00 0.00 0.00 48 1023.6
20260505065633 20 178 1.6 9.7 0.00 0.00 0.00 48 1023.5
20260505065130 20 161 8.0 17.7 0.00 0.00 0.00 50 1023.5
20260505064627 20 99 6.4 11.3 0.00 0.00 0.00 50 1023.5
20260505064125 20 193 11.3 20.9 0.00 0.00 0.00 50 1023.4
20260505063622 20 169 6.4 14.5 0.00 0.00 0.00 50 1023.3
20260505063118 20 137 14.5 22.5 0.00 0.00 0.00 48 1023.3
20260505062615 20 161 8.0 17.7 0.00 0.00 0.00 49 1023.3
20260505062112 20 127 9.7 17.7 0.00 0.00 0.00 50 1023.4
20260505061609 20 123 11.3 16.1 0.00 0.00 0.00 48 1023.4
20260505061108 20 85 11.3 20.9 0.00 0.00 0.00 48 1023.4
20260505060605 20 147 9.7 16.1 0.00 0.00 0.00 48 1023.3
20260505055556 20 145 9.7 17.7 0.00 0.00 0.00 49 1023.3
20260505055053 20 63 8.0 20.9 0.00 0.00 0.00 48 1023.4
20260505054550 20 95 14.5 20.9 0.00 0.00 0.00 47 1023.3
20260505054049 20 158 11.3 22.5 0.00 0.00 0.00 47 1023.1
20260505053545 20 128 4.8 20.9 0.00 0.00 0.00 47 1023.2
20260505053042 20 82 6.4 20.9 0.00 0.00 0.00 47 1023.3
20260505052539 20 83 11.3 20.9 0.00 0.00 0.00 46 1023.3
20260505052037 20 78 6.4 16.1 0.00 0.00 0.00 48 1023.3
20260505051533 20 103 9.7 16.1 0.00 0.00 0.00 45 1023.4
20260505051031 20 92 9.7 20.9 0.00 0.00 0.00 46 1023.3
20260505050529 20 70 12.9 20.9 0.00 0.00 0.00 47 1023.3
20260505041457 20 77 6.4 12.9 0.00 0.00 0.00 44 1023.4
20260505040954 20 36 6.4 14.5 0.00 0.00 0.00 41 1023.5
20260505040452 20 54 11.3 16.1 0.00 0.00 0.00 40 1023.5
20260505035948 20 67 4.8 12.9 0.00 0.00 0.00 37 1023.5
20260505035444 20 61 6.4 11.3 0.00 0.00 0.00 37 1023.5
20260505034942 20 77 3.2 9.7 0.00 0.00 0.00 38 1023.4
20260505034438 20 70 4.8 12.9 0.00 0.00 0.00 35 1023.7
20260505033935 19 356 3.2 3.2 0.00 0.00 0.00 38 1023.7
20260505033432 19 73 4.8 12.9 0.00 0.00 0.00 35 1023.8
20260505032930 20 58 6.4 12.9 0.00 0.00 0.00 34 1023.6
20260505032427 19 88 4.8 9.7 0.00 0.00 0.00 31 1023.9
20260505031923 19 67 1.6 11.3 0.00 0.00 0.00 25 1023.8
20260505031420 19 9 8.0 9.7 0.00 0.00 0.00 29 1023.9
20260505030917 19 80 3.2 3.2 0.00 0.00 0.00 33 1023.7
20260505030413 19 33 9.7 12.9 0.00 0.00 0.00 35 1023.9
20260505025909 18 28 9.7 12.9 0.00 0.00 0.00 30 1023.9
20260505025406 19 79 6.4 11.3 0.00 0.00 0.00 30 1024.0
20260505024905 19 62 0.0 6.4 0.00 0.00 0.00 31 1024.1
20260505024402 18 90 11.3 14.5 0.00 0.00 0.00 32 1024.0
20260505023859 19 73 6.4 12.9 0.00 0.00 0.00 30 1024.0
20260505023356 18 348 6.4 12.9 0.00 0.00 0.00 33 1024.0
20260505022853 18 51 1.6 11.3 0.00 0.00 0.00 34 1024.1
20260505022350 18 47 3.2 12.9 0.00 0.00 0.00 32 1024.1
20260505021848 18 78 4.8 6.4 0.00 0.00 0.00 37 1023.9
20260505021344 18 70 4.8 6.4 0.00 0.00 0.00 36 1024.0
20260505020840 18 67 3.2 11.3 0.00 0.00 0.00 36 1024.2
20260505020335 18 59 4.8 11.3 0.00 0.00 0.00 33 1024.2
20260505015832 18 84 6.4 12.9 0.00 0.00 0.00 37 1024.2
20260505015330 18 67 3.2 11.3 0.00 0.00 0.00 40 1024.2
20260505014827 17 62 4.8 16.1 0.00 0.00 0.00 40 1024.2
20260505014324 18 42 9.7 14.5 0.00 0.00 0.00 38 1024.2
20260505013820 17 56 3.2 6.4 0.00 0.00 0.00 41 1024.2
20260505013318 17 20 8.0 11.3 0.00 0.00 0.00 42 1024.2
20260505012816 18 64 4.8 14.5 0.00 0.00 0.00 37 1024.2
20260505012313 18 64 6.4 11.3 0.00 0.00 0.00 38 1024.2
20260505011809 17 7 9.7 14.5 0.00 0.00 0.00 38 1024.3
20260505011306 17 34 9.7 12.9 0.00 0.00 0.00 39 1024.3
20260505010802 18 36 11.3 16.1 0.00 0.00 0.00 37 1024.2
20260505010258 17 48 3.2 16.1 0.00 0.00 0.00 37 1024.1
20260505005754 17 52 9.7 16.1 0.00 0.00 0.00 35 1023.9
20260505005252 18 20 8.0 16.1 0.00 0.00 0.00 33 1024.1
20260505004749 18 356 11.3 22.5 0.00 0.00 0.00 36 1024.0
20260505004245 18 6 9.7 14.5 0.00 0.00 0.00 29 1024.0
20260505003742 18 30 9.7 16.1 0.00 0.00 0.00 29 1023.9
20260505003240 18 63 3.2 14.5 0.00 0.00 0.00 31 1024.0
20260505002736 18 358 11.3 20.9 0.00 0.00 0.00 31 1024.0
20260505002234 18 351 8.0 14.5 0.00 0.00 0.00 33 1023.7
20260505001731 17 0 8.0 11.3 0.00 0.00 0.00 31 1023.8
20260505001229 17 352 6.4 17.7 0.00 0.00 0.00 34 1023.4
20260505000725 17 271 17.7 20.9 0.00 0.00 0.00 31 1023.1
20260505000223 17 277 16.1 22.5 0.00 0.00 0.00 33 1023.2
20260504235719 17 345 17.7 22.5 0.00 0.00 0.00 32 1023.4
20260504235215 17 301 17.7 24.1 0.00 0.00 0.00 32 1023.5
20260504234713 17 309 16.1 22.5 0.00 0.00 0.00 36 1023.5
20260504234210 16 354 16.1 20.9 0.00 0.00 0.00 35 1023.7
20260504233706 16 273 17.7 27.4 0.00 0.00 0.00 36 1023.5
20260504233202 16 269 14.5 22.5 0.00 0.00 0.00 40 1023.6
20260504232700 16 331 14.5 20.9 0.00 0.00 0.00 39 1023.6
20260504232156 16 278 17.7 22.5 0.00 0.00 0.00 40 1023.6
20260504231653 16 12 11.3 16.1 0.00 0.00 0.00 41 1023.8
20260504231150 15 274 14.5 20.9 0.00 0.00 0.00 43 1024.0
20260504230646 15 353 9.7 16.1 0.00 0.00 0.00 45 1023.7
20260504230145 15 330 12.9 17.7 0.00 0.00 0.00 48 1023.8
20260504225643 15 353 11.3 22.5 0.00 0.00 0.00 49 1023.7
20260504225138 15 327 17.7 17.7 0.00 0.00 0.00 48 1023.6
20260504224635 14 343 11.3 16.1 0.00 0.00 0.00 49 1023.8
20260504224132 14 302 16.1 20.9 0.00 0.00 0.00 47 1023.6
20260504223629 14 287 11.3 12.9 0.00 0.00 0.00 49 1023.7
20260504223125 14 358 9.7 12.9 0.00 0.00 0.00 50 1023.4
20260504222622 14 339 12.9 12.9 0.00 0.00 0.00 50 1023.6
20260504222119 13 274 12.9 22.5 0.00 0.00 0.00 53 1023.5
20260504221616 13 317 6.4 14.5 0.00 0.00 0.00 54 1023.4
20260504221114 13 274 11.3 14.5 0.00 0.00 0.00 55 1023.5
20260504220610 13 291 14.5 17.7 0.00 0.00 0.00 55 1023.4
20260504220108 13 274 9.7 14.5 0.00 0.00 0.00 57 1023.4
20260504215603 13 286 12.9 14.5 0.00 0.00 0.00 58 1023.5
20260504215101 13 252 9.7 14.5 0.00 0.00 0.00 58 1023.3
20260504214557 12 293 12.9 16.1 0.00 0.00 0.00 59 1023.2
20260504214053 12 272 11.3 16.1 0.00 0.00 0.00 60 1023.1
20260504213550 12 273 8.0 11.3 0.00 0.00 0.00 60 1023.1
20260504213047 12 314 4.8 14.5 0.00 0.00 0.00 61 1022.9
20260504212543 12 284 6.4 11.3 0.00 0.00 0.00 61 1023.0
20260504212040 12 180 1.6 6.4 0.00 0.00 0.00 62 1022.8
20260504211537 12 270 6.4 9.7 0.00 0.00 0.00 60 1022.7
20260504211034 12 281 4.8 12.9 0.00 0.00 0.00 61 1022.8
20260504210531 11 270 4.8 9.7 0.00 0.00 0.00 61 1022.7
20260504210028 11 276 3.2 6.4 0.00 0.00 0.00 63 1022.5
20260504205526 11 270 6.4 6.4 0.00 0.00 0.00 64 1022.7
20260504205023 11 270 3.2 3.2 0.00 0.00 0.00 66 1022.7
20260504204521 11 259 1.6 3.2 0.00 0.00 0.00 66 1022.5
20260504204020 11 163 0.0 0.0 0.00 0.00 0.00 68 1022.5
20260504203517 10 154 0.0 0.0 0.00 0.00 0.00 68 1022.4
20260504203015 10 178 1.6 3.2 0.00 0.00 0.00 67 1022.2
20260504202510 10 271 1.6 3.2 0.00 0.00 0.00 68 1022.1
20260504202007 10 285 4.8 6.4 0.00 0.00 0.00 67 1022.2
20260504201504 11 280 6.4 6.4 0.00 0.00 0.00 67 1022.0
20260504201002 11 266 6.4 6.4 0.00 0.00 0.00 67 1022.0
20260504200458 11 292 4.8 6.4 0.00 0.00 0.00 66 1021.6
20260504195955 11 276 6.4 11.3 0.00 0.00 0.00 65 1021.5
20260504195451 11 292 8.0 14.5 0.00 0.00 0.00 65 1021.5
20260504194948 11 289 6.4 12.9 0.00 0.00 0.00 65 1021.3
20260504194444 11 280 8.0 12.9 0.00 0.00 0.00 66 1021.4
20260504193940 11 301 9.7 11.3 0.00 0.00 0.00 67 1021.2
20260504193437 11 274 11.3 12.9 0.00 0.00 0.00 68 1021.1
20260504192936 11 285 6.4 12.9 0.00 0.00 0.00 67 1021.1
20260504192432 11 261 12.9 16.1 0.00 0.00 0.00 67 1021.1
20260504191931 11 268 9.7 16.1 0.00 0.00 0.00 68 1020.8
20260504191429 11 273 9.7 16.1 0.00 0.00 0.00 68 1020.8
20260504190924 11 279 11.3 16.1 0.00 0.00 0.00 68 1020.8
20260504190420 11 278 6.4 11.3 0.00 0.00 0.00 69 1020.9
20260504185917 11 290 9.7 12.9 0.00 0.00 0.00 69 1021.0
20260504185414 11 278 9.7 14.5 0.00 0.00 0.00 71 1020.8
20260504184910 11 282 11.3 12.9 0.00 0.00 0.00 72 1020.6
20260504184406 11 278 12.9 14.5 0.00 0.00 0.00 72 1020.6
20260504183902 11 273 11.3 16.1 0.00 0.00 0.00 73 1020.4
20260504183359 11 307 9.7 16.1 0.00 0.00 0.00 74 1020.5
20260504182857 11 289 12.9 17.7 0.00 0.00 0.00 74 1020.5
20260504182354 11 249 11.3 16.1 0.00 0.00 0.00 74 1020.3
20260504181850 11 296 9.7 20.9 0.00 0.00 0.00 74 1020.4
20260504181348 11 281 14.5 20.9 0.00 0.00 0.00 74 1020.1
20260504180847 11 273 12.9 14.5 0.00 0.00 0.00 74 1020.2
20260504180345 12 288 8.0 11.3 0.00 0.00 0.00 74 1020.2
20260504175843 12 302 8.0 12.9 0.00 0.00 0.00 73 1020.1
20260504175339 12 285 6.4 11.3 0.00 0.00 0.00 73 1020.2
20260504174838 12 275 8.0 14.5 0.00 0.00 0.00 74 1019.8
20260504174335 12 289 6.4 11.3 0.00 0.00 0.00 74 1020.0
20260504173831 12 278 6.4 14.5 0.00 0.00 0.00 73 1019.8
20260504173328 12 298 8.0 12.9 0.00 0.00 0.00 73 1019.8
20260504172825 12 273 8.0 14.5 0.00 0.00 0.00 73 1019.6
20260504172322 12 291 11.3 14.5 0.00 0.00 0.00 72 1019.5
20260504171818 12 286 8.0 11.3 0.00 0.00 0.00 72 1019.6
20260504171315 12 266 9.7 14.5 0.00 0.00 0.00 72 1019.5
20260504170812 12 313 11.3 14.5 0.00 0.00 0.00 72 1019.5
20260504170309 12 257 8.0 14.5 0.00 0.00 0.00 73 1019.4
20260504160227 13 298 14.5 20.9 0.00 0.00 0.00 70 1018.7
20260504150652 13 287 9.7 11.3 0.00 0.00 0.00 69 1017.9
20260504150149 13 309 14.5 16.1 0.00 0.00 0.00 68 1018.0
20260504141118 13 269 16.1 20.9 0.00 0.13 0.13 71 1017.6
20260504140615 13 327 12.9 27.4 0.00 0.13 0.13 70 1017.4
20260504140110 13 294 8.0 20.9 0.00 0.13 0.13 71 1017.4
20260504130539 14 303 12.9 17.7 0.00 0.13 0.13 71 1017.6
20260504110426 15 304 14.5 20.9 0.00 0.13 0.13 71 1015.1
20260504100343 15 275 9.7 16.1 0.00 0.13 0.13 70 1013.7